Location: Cran-Gévrier
(45.9039°N, 6.1012°E)
Time: 20:48:14
(UTC+00:00)

STRAND 1 - Pass Details

Date: 11 December 2023
Orbit: 766 x 778 km, 98.4° (Epoch: 28 February)

Event Time Altitude Azimuth Distance (km) Brightness Sun altitude
Exits shadow 17:54:24 43° 69° (ENE) 1,067 ? -20.6°
Maximum altitude 17:55:15 48° 99° (E) 1,002 ? -20.8°
Drops below altitude 10° 18:00:09 10° 174° (S) 2,305 ? -21.6°
Sets 18:02:32 0° 180° (S) 3,229 ? -22.0°
